DELTA 1 DEB

Satellite information

Favourite Embed

Satellite Type and Status

DEBRISIN ORBIT

Key statistics

Satellite DELTA 1 DEB at a glance.

Uptime

18289

Days in orbit

Revolutions

≈ 13.3

Per day

Orbit

SSO

Sun Synchronous Orbit

Inclination

99.7

Latest

Satellite identification and parameters

Extended collection of information and parameters for DELTA 1 DEB.

Object identification

Identified? True

Debris? True

Object name: DELTA 1 DEB

International designator: 1975-052MN

Object number (NORAD): 42653

Object ID (CCSDS): 42653

Country: UNITED STATES OF AMERICA (US)

Current information (Y/N): Y

RCS size: SMALL

Orbital parameters

Period: 108.206 minutes

Inclination: 99.7338 deg

SMA: 7521.885 km

Apoapsis: 1195.929 km

Periapsis: 1091.571 km

RAAN: 346.5979 deg

Eccentricy: 0.006937

Argument of periapsis: 100.0143 deg

Mean anomaly: 322.9778 deg

Mean motion: 13.30799762 rev/day

Mean motion (dot): -0.00000012 rev/day2

B* drag term: 0.000059401 1/REarth

Two-line elements (TLE)

Creation date: July 8, 2025, 2:27 a.m.

Reference frame: TEME

Reference center: EARTH

Epoch: July 7, 2025, 4:07 p.m. UTC

TLE line 0: 0 DELTA 1 DEB

TLE line 1: 1 42653U 75052MN 25188.67170435 -.00000012 00000-0 59401-4 0 9993

TLE line 2: 2 42653 99.7338 346.5979 0069370 100.0143 322.9778 13.30799762564671

Live tracking on map

Real-time ground track for satellite DELTA 1 DEB.

In-orbit conjunctions

A list of the most updated potential collisions computed for object DELTA 1 DEB.

Target Orbit TCA Probability of collision Miss distance Type
RADIATION SAT (5E 1) LEO 2025-01-01 17:36:14 0.01521505 17.0 (m) PAYLOAD

Associated space launch

Experimental meteorological satellite

DELTA 1 DEB was lifted into orbit during the mission ‘Delta 2910 | Nimbus 6’, on board a Delta 2910 space rocket.

The launch took place on June 12, 1975, 8:12 a.m. from Space Launch Complex 2W.

For more information about the launch, click the button.

Launch to space Delta 2910 | Nimbus 6
Delta 2910 | Nimbus 6

Agency: N/A

Status: Launch Successful

Launch date: June 12, 1975, 8:12 a.m. UTC

Rocket: Delta 2910

Launch pad: Space Launch Complex 2W

Location: Vandenberg SFB, CA, USA

...

Latest news about this satellite

There are no fresh news available about this satellite. Check back as we update our databases every day.


Newsletter sign-up

Weekly statistics, charts and insights to help you stay on top of the space industry.